342  
ASUS41 KALY 211410  
RWRALY  
 
NEW YORK STATE HOURLY WEATHER ROUNDUP  
NATIONAL WEATHER SERVICE ALBANY NY  
1000 AM EDT SAT MAY 21 2022  
 
NOTE: "FAIR" INDICATES FEW OR NO CLOUDS BELOW 12,000 FEET WITH NO  
SIGNIFICANT WEATHER AND/OR NO S TO VISIBILITY
.  
 
NYZ032-033-038>043-046>054-057>066-NYZ062>081-082-084-211500-  
EAST  
 
 
CITY SKY/WX TMP DP RH WIND PRES REMARKS
 
ALBANY PTSUNNY 72 65 78 S8 29.99R  
GLENS FALLS CLOUDY 68 64 87 SW8 29.98R  
POUGHKEEPSIE CLOUDY 68 64 87 SW7 30.01R  
NEWBURGH CLOUDY 66 66 100 VRB6 30.04R FOG  
MONTGOMERY CLOUDY 67 65 93 S8 30.03R  
WHITE PLAINS PTSUNNY 69 65 86 NW7 30.03S FOG  
ISLIP PTSUNNY 71 66 84 NW7 30.02F  
NEW YORK CITY PTSUNNY 70 64 81 NW6 30.02F  
CENTRAL PARK MOSUNNY 67 65 93 CALM 30.06F FOG  

 
 
NYZ005>009-017-018-044>046-055-056-211500-  
CENTRAL  
 
 
CITY SKY/WX TMP DP RH WIND PRES REMARKS
 
FULTON SUNNY 83 68 60 W12G17 29.91R  
SYRACUSE MOSUNNY 84 66 54 SW14 29.90F  
ROME SUNNY 80 68 66 E5 29.94S  
ELMIRA SUNNY 79 67 66 VRB5 29.96F  
BINGHAMTON SUNNY 76 65 68 SW9 30.02R  
MONTICELLO CLOUDY 69 68 96 SW5 30.07R FOG  

 
 
NYZ026>034-041>043-087-211500-  
NORTH  
 
 
CITY SKY/WX TMP DP RH WIND PRES REMARKS
 
WATERTOWN SUNNY 82 67 60 SW15G26 29.88R  
FORT DRUM NOT AVBL  
OGDENSBURG FAIR 79 66 65 SW10G24 29.81F  
MASSENA SUNNY 80 67 64 SW15G23 29.84R  
SARANAC LAKE SUNNY 77 66 68 SW9 29.93F  
PLATTSBURGH MOSUNNY 69 61 75 SE12 29.88S  

 
 
NYZ001>004-010>016-019>021-085-211500-  
WEST  
 
 
CITY SKY/WX TMP DP RH WIND PRES REMARKS
 
NIAGARA FALLS PTSUNNY 78 65 63 SW13G22 29.88R  
BUFFALO PTSUNNY 79 64 60 SW20G28 29.89S  
DUNKIRK PTSUNNY 82 65 56 SW17G28 29.92R  
JAMESTOWN MOSUNNY 75 65 70 SW15 30.00S  
WELLSVILLE SUNNY 78 65 63 VRB7 30.03R  
ROCHESTER MOSUNNY 83 66 56 W17G28 29.90R  
PENN YAN SUNNY 82 65 56 S8 29.95R  

 
 
KEY  
WCI = WIND CHILL INDEX  
VSB = VISIBILITY  
HX = HEAT INDEX  

 
 
 
CLICK HERE TO GO TO PREVIOUS BULLETINS.

The Nexlab NY Page
The Nexlab VT Page
The Nexlab MA Page
The Nexlab CT Page Main Text Page